�������l�o���
Date,Time,MP-1(��Sv/h),MP-2(��Sv/h),MP-3(��Sv/h),MP-4(��Sv/h),MP-5(��Sv/h),MP-6(��Sv/h),MP-7(��Sv/h),MP-8(��Sv/h),����,����(m/s),���J
2021/01/17,00:00,0.657,0.938,0.600,1.182,0.835,0.375,0.669,0.629,���k��,13.6,��
2021/01/17,00:10,0.658,0.936,0.599,1.181,0.834,0.374,0.669,0.628,���k��,11.0,��
2021/01/17,00:20,0.658,0.939,0.598,1.181,0.834,0.373,0.668,0.630,���k��,14.1,��
2021/01/17,00:30,0.659,0.939,0.600,1.181,0.837,0.375,0.669,0.629,���k��,16.6,��
2021/01/17,00:40,0.657,0.938,0.599,1.183,0.835,0.374,0.669,0.629,���k��,13.5,��
2021/01/17,00:50,0.656,0.936,0.600,1.182,0.834,0.373,0.669,0.631,���k��,13.1,��
2021/01/17,01:00,0.656,0.937,0.598,1.181,0.834,0.374,0.668,0.629,���k��,13.8,��
2021/01/17,01:10,0.657,0.937,0.598,1.184,0.835,0.375,0.669,0.630,���k��,12.5,��
2021/01/17,01:20,0.657,0.939,0.598,1.184,0.836,0.374,0.669,0.629,���k��,12.4,��
2021/01/17,01:30,0.657,0.938,0.601,1.184,0.833,0.373,0.668,0.631,���k��,9.5,��
2021/01/17,01:40,0.658,0.935,0.600,1.182,0.835,0.374,0.667,0.629,�k��,12.7,��
2021/01/17,01:50,0.657,0.939,0.601,1.183,0.834,0.373,0.668,0.629,�k��,9.0,��
2021/01/17,02:00,0.656,0.938,0.598,1.184,0.835,0.376,0.668,0.630,�k��,9.4,��
2021/01/17,02:10,0.655,0.937,0.601,1.183,0.835,0.374,0.668,0.631,�k�k��,5.7,��
2021/01/17,02:20,0.658,0.939,0.599,1.181,0.835,0.376,0.667,0.631,�k,5.8,��
2021/01/17,02:30,0.658,0.939,0.600,1.185,0.834,0.375,0.668,0.631,�k,4.8,��
2021/01/17,02:40,0.657,0.938,0.601,1.185,0.833,0.377,0.667,0.631,�k�k��,4.2,��
2021/01/17,02:50,0.655,0.940,0.600,1.183,0.831,0.376,0.667,0.631,�k,5.7,��
2021/01/17,03:00,0.657,0.937,0.601,1.185,0.833,0.375,0.666,0.630,�k,5.6,��
2021/01/17,03:10,0.657,0.939,0.601,1.181,0.833,0.375,0.666,0.629,�k,4.8,��
2021/01/17,03:20,0.655,0.936,0.600,1.182,0.832,0.375,0.667,0.627,�k�k��,7.0,��
2021/01/17,03:30,0.658,0.939,0.599,1.183,0.834,0.375,0.666,0.629,�k�k��,6.2,��
2021/01/17,03:40,0.657,0.939,0.599,1.183,0.835,0.376,0.668,0.628,�k�k��,6.0,��
2021/01/17,03:50,0.657,0.939,0.599,1.184,0.833,0.376,0.668,0.630,�k�k��,5.7,��
2021/01/17,04:00,0.656,0.938,0.600,1.181,0.833,0.374,0.667,0.628,�k�k��,6.8,��
2021/01/17,04:10,0.658,0.938,0.599,1.185,0.834,0.375,0.666,0.630,�k��,5.2,��
2021/01/17,04:20,0.657,0.940,0.600,1.183,0.832,0.375,0.667,0.629,���k��,4.0,��
2021/01/17,04:30,0.657,0.936,0.600,1.181,0.832,0.374,0.667,0.629,���k��,5.2,��
2021/01/17,04:40,0.657,0.937,0.600,1.183,0.833,0.377,0.666,0.631,���k��,7.1,��
2021/01/17,04:50,0.657,0.938,0.600,1.183,0.833,0.374,0.667,0.629,�k��,7.9,��
2021/01/17,05:00,0.658,0.938,0.601,1.184,0.833,0.374,0.668,0.630,�k��,6.3,��
2021/01/17,05:10,0.656,0.936,0.600,1.182,0.832,0.376,0.667,0.629,�k��,5.8,��
2021/01/17,05:20,0.656,0.937,0.602,1.182,0.832,0.375,0.665,0.629,�k��,6.2,��
2021/01/17,05:30,0.655,0.936,0.600,1.182,0.832,0.375,0.667,0.629,�k��,0.9,��
2021/01/17,05:40,0.657,0.936,0.600,1.182,0.834,0.376,0.667,0.628,�k,3.3,��
2021/01/17,05:50,0.657,0.938,0.599,1.183,0.834,0.375,0.668,0.629,�k�k��,5.0,��
2021/01/17,06:00,0.657,0.939,0.601,1.183,0.832,0.374,0.666,0.629,�k�k��,5.3,��
2021/01/17,06:10,0.656,0.936,0.599,1.183,0.832,0.375,0.666,0.631,�k�k��,6.2,��
2021/01/17,06:20,0.658,0.938,0.600,1.185,0.833,0.375,0.667,0.629,�k�k��,7.4,��
2021/01/17,06:30,0.656,0.937,0.601,1.183,0.833,0.374,0.667,0.629,�k�k��,8.8,��
2021/01/17,06:40,0.657,0.938,0.601,1.181,0.833,0.374,0.666,0.628,�k�k��,7.4,��
2021/01/17,06:50,0.657,0.936,0.600,1.183,0.832,0.374,0.666,0.629,�k��,6.8,��
2021/01/17,07:00,0.657,0.937,0.600,1.183,0.835,0.373,0.667,0.628,�k��,9.5,��
2021/01/17,07:10,0.657,0.937,0.599,1.183,0.833,0.373,0.665,0.629,�k��,9.5,��
2021/01/17,07:20,0.655,0.935,0.598,1.183,0.832,0.373,0.668,0.629,�k��,8.3,��
2021/01/17,07:30,0.657,0.938,0.599,1.183,0.835,0.373,0.667,0.631,�k�k��,4.6,��
2021/01/17,07:40,0.656,0.938,0.598,1.183,0.833,0.374,0.667,0.630,�k�k��,4.1,��
2021/01/17,07:50,0.657,0.937,0.600,1.184,0.835,0.374,0.667,0.627,�k�k��,4.5,��
2021/01/17,08:00,0.656,0.937,0.602,1.183,0.833,0.375,0.667,0.628,�k,5.7,��
2021/01/17,08:10,0.657,0.939,0.600,1.181,0.834,0.376,0.667,0.629,�k�k��,6.3,��
2021/01/17,08:20,0.655,0.936,0.599,1.182,0.836,0.375,0.667,0.629,�k��,5.1,��
2021/01/17,08:30,0.659,0.938,0.600,1.182,0.835,0.375,0.668,0.629,�k�k��,4.1,��
2021/01/17,08:40,0.658,0.936,0.601,1.181,0.833,0.375,0.667,0.629,�k,3.4,��
2021/01/17,08:50,0.657,0.940,0.601,1.184,0.835,0.375,0.667,0.629,�k��,3.5,��
2021/01/17,09:00,0.656,0.935,0.602,1.183,0.834,0.374,0.667,0.628,�k�k��,4.7,��
2021/01/17,09:10,0.656,0.939,0.601,1.182,0.833,0.375,0.668,0.629,�k�k��,4.3,��
2021/01/17,09:20,0.658,0.938,0.602,1.182,0.834,0.375,0.667,0.629,�k�k��,3.4,��
2021/01/17,09:30,0.658,0.934,0.598,1.183,0.836,0.377,0.668,0.629,�k�k��,2.3,��
2021/01/17,09:40,0.656,0.937,0.601,1.184,0.833,0.376,0.667,0.629,�k�k��,0.9,��
2021/01/17,09:50,0.657,0.936,0.601,1.182,0.834,0.375,0.667,0.631,�k��,1.4,��
2021/01/17,10:00,0.660,0.938,0.600,1.184,0.835,0.375,0.668,0.629,���k��,0.8,��
2021/01/17,10:10,0.657,0.938,0.602,1.185,0.834,0.375,0.668,0.630,-,CALM,��
2021/01/17,10:20,0.658,0.938,0.602,1.183,0.835,0.376,0.666,0.630,�k��,1.4,��
2021/01/17,10:30,0.656,0.939,0.602,1.183,0.835,0.376,0.666,0.630,�k��,0.9,��
2021/01/17,10:40,0.659,0.938,0.601,1.184,0.834,0.377,0.668,0.629,�k��,1.4,��
2021/01/17,10:50,0.657,0.938,0.602,1.185,0.834,0.376,0.667,0.630,�k��,1.1,��
2021/01/17,11:00,0.657,0.936,0.600,1.183,0.836,0.377,0.667,0.629,��쓌,0.8,��
2021/01/17,11:10,0.659,0.938,0.602,1.186,0.836,0.376,0.668,0.629,��,0.9,��
2021/01/17,11:20,0.658,0.937,0.602,1.184,0.837,0.376,0.669,0.631,-,CALM,��
2021/01/17,11:30,0.658,0.938,0.602,1.183,0.834,0.376,0.668,0.631,�k�k��,0.9,��
2021/01/17,11:40,0.658,0.938,0.602,1.185,0.836,0.377,0.668,0.629,�k�k��,1.7,��
2021/01/17,11:50,0.660,0.937,0.603,1.186,0.835,0.376,0.668,0.630,�k,1.7,��
2021/01/17,12:00,0.659,0.937,0.601,1.184,0.837,0.376,0.667,0.630,�k�k��,2.2,��
2021/01/17,12:10,0.658,0.940,0.603,1.185,0.836,0.376,0.668,0.630,�k�k��,2.5,��
2021/01/17,12:20,0.660,0.940,0.601,1.187,0.837,0.376,0.669,0.628,�k��,3.3,��
2021/01/17,12:30,0.658,0.940,0.601,1.184,0.837,0.375,0.668,0.631,�k��,3.8,��
2021/01/17,12:40,0.658,0.939,0.603,1.185,0.838,0.375,0.667,0.629,�k��,4.1,��
2021/01/17,12:50,0.659,0.940,0.602,1.183,0.835,0.376,0.667,0.629,�k�k��,4.4,��
2021/01/17,13:00,0.658,0.940,0.601,1.183,0.836,0.376,0.668,0.630,�k�k��,4.7,��
2021/01/17,13:10,0.658,0.939,0.602,1.185,0.837,0.376,0.666,0.629,�k�k��,4.7,��
2021/01/17,13:20,0.658,0.938,0.602,1.182,0.836,0.376,0.667,0.630,�k�k��,5.0,��
2021/01/17,13:30,0.658,0.938,0.603,1.185,0.836,0.376,0.668,0.628,�k��,4.8,��
2021/01/17,13:40,0.658,0.939,0.602,1.185,0.836,0.376,0.668,0.631,�k,3.9,��
2021/01/17,13:50,0.659,0.939,0.602,1.187,0.836,0.376,0.670,0.630,�k,3.5,��
2021/01/17,14:00,0.658,0.939,0.603,1.186,0.836,0.377,0.668,0.630,�k,3.5,��
2021/01/17,14:10,0.660,0.939,0.604,1.186,0.837,0.377,0.668,0.631,�k,3.4,��
2021/01/17,14:20,0.658,0.938,0.601,1.184,0.838,0.376,0.668,0.631,�k,2.8,��
2021/01/17,14:30,0.659,0.940,0.603,1.186,0.836,0.375,0.668,0.630,�k,2.0,��
2021/01/17,14:40,0.660,0.941,0.602,1.184,0.836,0.377,0.667,0.630,�k,2.6,��
2021/01/17,14:50,0.657,0.939,0.602,1.186,0.836,0.376,0.667,0.630,�k,2.3,��
2021/01/17,15:00,0.659,0.940,0.604,1.186,0.836,0.377,0.668,0.630,�k,1.7,��
2021/01/17,15:10,0.658,0.940,0.603,1.186,0.837,0.376,0.668,0.630,�k,2.2,��
2021/01/17,15:20,0.658,0.939,0.603,1.185,0.837,0.376,0.670,0.630,�k,2.6,��
2021/01/17,15:30,0.659,0.939,0.604,1.187,0.838,0.376,0.669,0.630,�k,2.3,��
2021/01/17,15:40,0.658,0.940,0.603,1.184,0.838,0.376,0.669,0.631,�k,1.7,��
2021/01/17,15:50,0.659,0.937,0.603,1.187,0.837,0.376,0.668,0.631,�k,2.5,��
2021/01/17,16:00,0.658,0.939,0.604,1.186,0.835,0.376,0.668,0.630,�k,2.6,��
2021/01/17,16:10,0.659,0.940,0.602,1.184,0.836,0.375,0.668,0.630,�k,2.3,��
2021/01/17,16:20,0.659,0.942,0.602,1.186,0.838,0.377,0.668,0.630,�k,3.5,��
2021/01/17,16:30,0.658,0.940,0.603,1.185,0.837,0.377,0.667,0.630,�k,4.6,��
2021/01/17,16:40,0.658,0.938,0.603,1.184,0.838,0.376,0.668,0.631,�k�k��,3.9,��
2021/01/17,16:50,0.659,0.937,0.603,1.185,0.838,0.376,0.668,0.630,�k�k��,3.4,��
2021/01/17,17:00,0.658,0.938,0.603,1.185,0.838,0.376,0.668,0.630,�k,3.7,��
2021/01/17,17:10,0.658,0.938,0.603,1.186,0.836,0.377,0.668,0.631,�k,4.5,�L
2021/01/17,17:20,0.659,0.940,0.603,1.187,0.838,0.374,0.666,0.630,�k�k��,4.8,��
2021/01/17,17:30,0.657,0.938,0.603,1.183,0.836,0.375,0.669,0.629,�k�k��,3.8,��
2021/01/17,17:40,0.656,0.940,0.603,1.186,0.837,0.375,0.669,0.630,�k�k��,4.3,��
2021/01/17,17:50,0.658,0.940,0.603,1.187,0.837,0.376,0.669,0.629,�k�k��,4.3,��
2021/01/17,18:00,0.657,0.938,0.602,1.183,0.837,0.376,0.666,0.630,�k�k��,5.3,��
2021/01/17,18:10,0.658,0.938,0.602,1.186,0.837,0.376,0.666,0.629,�k�k��,4.9,��
2021/01/17,18:20,0.658,0.938,0.601,1.186,0.836,0.378,0.670,0.630,�k,5.1,��
2021/01/17,18:30,0.657,0.939,0.603,1.189,0.837,0.376,0.667,0.630,�k�k��,5.1,��
2021/01/17,18:40,0.658,0.940,0.602,1.186,0.837,0.377,0.667,0.629,�k,5.0,��
2021/01/17,18:50,0.657,0.940,0.602,1.185,0.836,0.376,0.668,0.630,�k�k��,5.1,��
2021/01/17,19:00,0.657,0.939,0.603,1.186,0.838,0.375,0.667,0.630,�k�k��,5.1,��
2021/01/17,19:10,0.657,0.939,0.601,1.186,0.838,0.377,0.670,0.629,�k�k��,5.4,��
2021/01/17,19:20,0.657,0.939,0.601,1.187,0.836,0.376,0.668,0.629,�k,6.3,��
2021/01/17,19:30,0.657,0.941,0.602,1.186,0.836,0.378,0.668,0.629,�k,6.7,��
2021/01/17,19:40,0.656,0.940,0.602,1.187,0.838,0.374,0.668,0.629,�k,6.9,��
2021/01/17,19:50,0.657,0.939,0.602,1.186,0.836,0.375,0.668,0.629,�k�k��,7.2,��
2021/01/17,20:00,0.656,0.937,0.599,1.186,0.837,0.375,0.667,0.631,�k�k��,6.2,��
2021/01/17,20:10,0.656,0.941,0.602,1.185,0.839,0.374,0.667,0.629,�k�k��,5.8,��
2021/01/17,20:20,0.657,0.938,0.602,1.187,0.836,0.376,0.669,0.630,�k�k��,5.6,��
2021/01/17,20:30,0.656,0.937,0.602,1.185,0.836,0.374,0.667,0.630,�k�k��,5.7,��
2021/01/17,20:40,0.655,0.937,0.602,1.182,0.837,0.375,0.667,0.630,�k,5.6,��
2021/01/17,20:50,0.655,0.941,0.601,1.186,0.837,0.374,0.668,0.629,�k�k��,5.7,��
2021/01/17,21:00,0.655,0.938,0.600,1.184,0.837,0.376,0.667,0.629,�k�k��,5.2,��
2021/01/17,21:10,0.658,0.939,0.601,1.187,0.837,0.376,0.666,0.632,�k,5.2,��
2021/01/17,21:20,0.657,0.938,0.601,1.185,0.834,0.375,0.667,0.628,�k,5.8,��
2021/01/17,21:30,0.655,0.938,0.601,1.186,0.836,0.377,0.667,0.630,�k,6.2,��
2021/01/17,21:40,0.655,0.940,0.601,1.183,0.837,0.375,0.666,0.628,�k�k��,6.9,��
2021/01/17,21:50,0.654,0.940,0.602,1.184,0.836,0.374,0.668,0.628,�k�k��,6.1,��
2021/01/17,22:00,0.657,0.938,0.601,1.186,0.835,0.376,0.667,0.630,�k�k��,5.8,��
2021/01/17,22:10,0.658,0.939,0.600,1.186,0.835,0.375,0.666,0.629,�k,6.2,��
2021/01/17,22:20,0.656,0.940,0.603,1.186,0.836,0.376,0.666,0.631,�k,7.9,��
2021/01/17,22:30,0.656,0.938,0.601,1.188,0.837,0.376,0.666,0.628,�k,7.2,��
2021/01/17,22:40,0.656,0.939,0.601,1.185,0.835,0.374,0.667,0.628,�k,7.4,��
2021/01/17,22:50,0.657,0.937,0.601,1.184,0.833,0.375,0.665,0.629,�k,7.2,��
2021/01/17,23:00,0.656,0.939,0.600,1.187,0.835,0.374,0.667,0.629,�k,7.4,��
2021/01/17,23:10,0.657,0.939,0.601,1.185,0.836,0.374,0.666,0.630,�k,7.4,��
2021/01/17,23:20,0.657,0.939,0.600,1.186,0.835,0.374,0.667,0.629,�k,6.3,��
2021/01/17,23:30,0.655,0.939,0.600,1.184,0.837,0.374,0.665,0.629,�k,5.8,��
2021/01/17,23:40,0.657,0.937,0.600,1.185,0.836,0.373,0.666,0.629,�k�k��,6.0,��
2021/01/17,23:50,0.654,0.937,0.599,1.185,0.834,0.374,0.665,0.630,�k�k��,6.4,��
